Find Starlink 34729

NORAD ID: 65364 Int'l Des: 2025-190 Owner: SPXS Country: US Constellation: starlink operational
LEOCIRCULAR

当前视图

正在加载3D地球...

About Starlink 34729

Starlink 34729 (NORAD 65364) is a starlink constellation satellite (v2 mini) launched Aug 28, 2025 by SPXS of US. It operates in LEO, CIRCULAR orbit with a mass of 575.00 kg.

即将过境

Passes for default location (London). Set your location on the main map for personalized predictions.

高度历史

Loading altitude history...

两行轨道根数

1 65364U 25190P 26227.48002705 .00013602 00000-0 41295-3 0 9992
2 65364 53.1607 150.1225 0001429 79.1274 280.9890 15.34403060 54494
Epoch: Aug 15, 2026 • Age: 5 hours

当前状态

高度 467.9 km
远地点 / 近地点 N/A
速度 7.63 km/s
星下点 -18.33°S, 70.8°W
发射日期 Aug 28, 2025
运行时间 0.9 years
类型 internet

技术详情

分类 Payload
质量 575.00 kg
干质量 530.00 kg
总质量 575.00 kg
长度 0.30 m
直径 4.10 m
跨度 29.00 m
形状 Box + pan
制造商 SPXS
平台类型 Starlink V2MO
阶段状态 In Orbit
所有者/国家 SPXS/US

Most Searched